Voltar ao catálogo

DELTA 1 DEB

AtivoSSO
NORAD 14909·DEBRIS·🇺🇸 United States

Lançado Mar 5, 1978 de Vandenberg Space Force Base

Loading…

Próximas Passagens (próximas 24 horas)

TLE

AtualizadoSource: Space-Track

Época: Sep 14, 2026, 01:42 UTC

1 14909U 78026GJ  26257.07134528  .00001843  00000-0  10533-2 0  9998
2 14909  98.7120 301.0088 0130328 312.1792  76.2211 14.06614477258693

Acompanhe DELTA 1 DEB em tempo real com AllMySat

Download on the App Store